User: anonymous   Login
Location: ??????
(33.3472°N, 35.4764°E)
Time: 01:11:01
(UTC+00:00)
Language:

Cosmos 1725 Rocket - Orbit

View from above orbital plane
View from above orbital plane
View from above satellite
View from above satellite

Ground track
Ground track

The orbit data is extracted from the following two-line orbital elements,

1 16494U 86005B   19293.78141803 -.00000011  00000-0 -27235-4 0  9996
2 16494  82.9312 155.4053 0019880   8.6255  38.7539 13.76499859695620
Epoch (UTC): 20 October 2019 18:45:14
Eccentricity: 0.0019880
inclination: 82.9312°
perigee height: 962 km
apogee height: 991 km
right ascension of ascending node: 155.4053°
argument of perigee: 8.6255°
revolutions per day: 13.76499859
mean anomaly at epoch: 38.7539°
orbit number at epoch: 69562

The dashed part of the orbit path shows where the satellite is in the earth's shadow,  

DLR